W5ZYX Weather Reports


Display with metric or nautical units.
time (UTC)temp
F
wind
direction
speed
MPH
gust
MPH
rain 1hr
in
rain 24hr
in
rain mn
in
humidity
%
barometer
mb
20260503173538 75 234 2.0 7.0 0.00 0.01 0.01 56 1023.0
20260503173103 75 267 3.0 7.0 0.00 0.01 0.01 56 1023.1
20260503172538 75 246 2.0 7.0 0.00 0.01 0.01 55 1023.1
20260503172037 75 213 1.0 7.0 0.00 0.01 0.01 58 1023.2
20260503171549 74 194 2.0 9.0 0.00 0.01 0.01 57 1023.3
20260503171039 74 253 3.0 9.0 0.00 0.01 0.01 58 1023.4
20260503170539 74 207 2.0 9.0 0.00 0.01 0.01 60 1023.4
20260503150539 68 173 1.0 7.0 0.00 0.01 0.01 75 1023.6
20260503131035 58 0 0.0 0.0 0.01 0.01 0.01 93 1022.9
20260503130537 58 0 0.0 0.0 0.01 0.01 0.01 94 1022.9
20260503110538 51 0 0.0 0.0 0.00 0.00 0.00 92 1021.7
20260503081546 53 0 0.0 0.0 0.00 0.00 0.00 92 1021.4
20260503081039 52 0 0.0 0.0 0.00 0.00 0.00 91 1021.4
20260503080536 52 0 0.0 0.0 0.00 0.00 0.00 91 1021.3
20260503072539 53 0 0.0 0.0 0.00 0.00 0.00 91 1021.7
20260503072036 53 0 0.0 0.0 0.00 0.00 0.00 91 1021.7
20260503071552 53 0 0.0 0.0 0.00 0.00 0.00 91 1021.7
20260503071040 53 0 0.0 0.0 0.00 0.00 0.00 91 1021.7
20260503070538 53 0 0.0 0.0 0.00 0.00 0.00 90 1021.7
20260503055038 54 0 0.0 0.0 0.00 0.00 0.00 89 1021.8
20260503054546 54 0 0.0 0.0 0.00 0.00 0.00 89 1021.8
20260503054039 54 0 0.0 0.0 0.00 0.00 0.00 89 1021.8
20260503053538 54 0 0.0 0.0 0.00 0.00 0.00 89 1021.7
20260503053047 55 0 0.0 0.0 0.00 0.00 0.00 89 1021.6
20260503052536 55 0 0.0 0.0 0.00 0.00 0.00 89 1021.6
20260503052036 55 0 0.0 0.0 0.00 0.00 0.00 89 1021.8
20260503051550 55 0 0.0 0.0 0.00 0.00 0.00 89 1021.7
20260503051035 55 0 0.0 0.0 0.00 0.00 0.00 90 1021.6
20260503050540 55 0 0.0 0.0 0.00 0.00 0.00 89 1021.7
20260503050048 55 0 0.0 0.0 0.00 0.00 0.00 87 1021.6
20260503045539 55 0 0.0 0.0 0.00 0.00 0.00 87 1021.6
20260503045038 55 0 0.0 0.0 0.00 0.00 0.00 87 1021.7
20260503044548 55 0 0.0 0.0 0.00 0.00 0.00 87 1021.6
20260503044036 55 0 0.0 0.0 0.00 0.00 0.00 87 1021.6
20260503043536 55 0 0.0 0.0 0.00 0.00 0.00 87 1021.5
20260503043046 56 0 0.0 0.0 0.00 0.00 0.00 88 1021.5
20260503042536 56 0 0.0 0.0 0.00 0.00 0.00 87 1021.3
20260503042038 56 0 0.0 0.0 0.00 0.00 0.00 87 1021.4
20260503041550 56 0 0.0 0.0 0.00 0.00 0.00 86 1021.3
20260503041039 56 0 0.0 0.0 0.00 0.00 0.00 86 1021.3
20260503040538 56 0 0.0 0.0 0.00 0.00 0.00 86 1021.4
20260503040057 57 0 0.0 0.0 0.00 0.00 0.00 86 1021.5
20260503035539 57 0 0.0 0.0 0.00 0.00 0.00 86 1021.5
20260503035039 57 0 0.0 0.0 0.00 0.00 0.00 87 1021.5
20260503034559 57 0 0.0 0.0 0.00 0.00 0.00 87 1021.3
20260503034036 57 0 0.0 0.0 0.00 0.00 0.00 87 1021.4
20260503033538 57 0 0.0 1.0 0.00 0.00 0.00 87 1021.3
20260503033053 57 0 0.0 1.0 0.00 0.00 0.00 87 1021.1
20260503032538 57 0 0.0 0.0 0.00 0.00 0.00 85 1021.0
20260503032038 57 0 0.0 0.0 0.00 0.00 0.00 85 1021.0
20260503031547 58 0 0.0 0.0 0.00 0.00 0.00 84 1021.1
20260503031038 58 0 0.0 0.0 0.00 0.00 0.00 85 1021.0
20260503030535 58 0 0.0 0.0 0.00 0.00 0.00 84 1021.1
20260503030112 58 0 0.0 0.0 0.00 0.00 0.00 84 1021.1
20260503025536 58 0 0.0 0.0 0.00 0.01 0.00 82 1021.1
20260503025037 59 0 0.0 0.0 0.00 0.01 0.00 82 1021.1
20260503024543 59 0 0.0 0.0 0.00 0.01 0.00 82 1021.0
20260503024039 59 0 0.0 0.0 0.00 0.01 0.00 82 1020.9
20260503023539 59 0 0.0 0.0 0.00 0.01 0.00 81 1020.9
20260503023051 59 0 0.0 0.0 0.00 0.01 0.00 80 1020.8
20260503022535 60 0 0.0 0.0 0.00 0.01 0.00 80 1020.6
20260503022038 60 0 0.0 0.0 0.00 0.01 0.00 80 1020.5
20260503021545 60 0 0.0 0.0 0.00 0.01 0.00 80 1020.5
20260503021038 61 0 0.0 0.0 0.00 0.01 0.00 80 1020.4
20260503020538 61 0 0.0 0.0 0.00 0.01 0.00 79 1020.4
20260503020049 61 0 0.0 0.0 0.00 0.01 0.00 78 1020.4
20260503015535 62 0 0.0 0.0 0.00 0.01 0.00 78 1020.4
20260503015038 62 0 0.0 0.0 0.00 0.01 0.00 77 1020.3
20260503014601 63 0 0.0 0.0 0.00 0.01 0.00 77 1020.1
20260503014036 63 0 0.0 0.0 0.00 0.01 0.00 77 1020.1
20260503013539 64 0 0.0 0.0 0.00 0.01 0.00 76 1020.1
20260503013051 64 0 0.0 0.0 0.00 0.01 0.00 75 1020.1
20260503012538 65 0 0.0 0.0 0.00 0.01 0.00 74 1020.1
20260503012041 66 0 0.0 0.0 0.00 0.01 0.00 72 1020.0
20260503011555 67 0 0.0 0.0 0.00 0.01 0.00 71 1019.9
20260503011041 68 0 0.0 0.0 0.00 0.01 0.00 70 1019.8
20260503010536 69 0 0.0 0.0 0.00 0.01 0.00 69 1019.7
20260503010103 70 0 0.0 0.0 0.00 0.01 0.00 68 1019.7
20260503005540 70 0 0.0 0.0 0.00 0.03 0.00 67 1019.6
20260503005039 70 0 0.0 0.0 0.00 0.03 0.00 64 1019.6
20260503004546 71 0 0.0 0.0 0.00 0.03 0.00 62 1019.5
20260503004039 71 0 0.0 1.0 0.00 0.03 0.00 60 1019.5
20260503003536 71 0 0.0 3.0 0.00 0.03 0.00 61 1019.5
20260503003118 72 0 0.0 3.0 0.00 0.03 0.00 60 1019.5
20260503002537 72 30 2.0 5.0 0.00 0.03 0.00 59 1019.5
20260503002037 72 30 2.0 5.0 0.00 0.03 0.00 58 1019.4
20260503001545 72 16 2.0 5.0 0.00 0.03 0.00 58 1019.3
20260503001039 73 35 2.0 5.0 0.00 0.03 0.00 58 1019.4
20260503000535 73 29 2.0 5.0 0.00 0.03 0.00 57 1019.3
20260503000053 73 29 3.0 8.0 0.00 0.03 0.00 57 1019.3
20260502235539 73 52 3.0 8.0 0.00 0.06 0.00 54 1019.3
20260502235038 73 40 3.0 10.0 0.00 0.06 0.00 54 1019.3
20260502234548 73 15 6.0 10.0 0.00 0.06 0.00 53 1019.1
20260502234038 73 26 4.0 8.0 0.00 0.06 0.00 55 1019.2
20260502233536 73 34 3.0 8.0 0.00 0.06 0.00 56 1019.2
20260502233047 73 13 4.0 8.0 0.00 0.06 0.00 53 1019.1
20260502232539 73 32 4.0 10.0 0.00 0.06 0.00 55 1019.2
20260502232036 73 21 5.0 10.0 0.00 0.06 0.00 55 1019.2
20260502231551 74 355 6.0 10.0 0.00 0.06 0.00 52 1019.2
20260502231040 74 5 4.0 11.0 0.00 0.06 0.00 54 1019.2
20260502230539 74 25 6.0 11.0 0.00 0.06 0.00 52 1019.2
20260502230054 74 341 5.0 12.0 0.00 0.06 0.00 55 1019.2
20260502225539 73 5 8.0 12.0 0.00 0.09 0.00 54 1019.2
20260502225038 73 53 6.0 11.0 0.00 0.09 0.00 55 1019.2
20260502224551 73 9 5.0 12.0 0.00 0.09 0.00 57 1019.2
20260502224038 73 360 8.0 15.0 0.00 0.09 0.00 54 1019.2
20260502223541 73 26 9.0 15.0 0.00 0.09 0.00 57 1019.2
20260502223049 73 29 7.0 14.0 0.00 0.09 0.00 55 1019.3
20260502222538 74 41 8.0 14.0 0.00 0.09 0.00 55 1019.3
20260502222039 74 20 8.0 12.0 0.00 0.09 0.00 54 1019.3
20260502221552 73 33 5.0 12.0 0.00 0.09 0.00 58 1019.4
20260502221040 73 5 6.0 14.0 0.00 0.09 0.00 56 1019.4
20260502220536 73 360 7.0 14.0 0.00 0.09 0.00 54 1019.4
20260502220050 74 360 9.0 14.0 0.00 0.09 0.00 54 1019.4
20260502215540 74 350 8.0 11.0 0.00 0.14 0.00 53 1019.4
20260502215041 74 336 5.0 11.0 0.00 0.14 0.00 56 1019.5
20260502214553 74 333 6.0 12.0 0.00 0.14 0.00 54 1019.5
20260502214040 74 355 6.0 12.0 0.00 0.14 0.00 56 1019.5
20260502213536 73 16 4.0 11.0 0.00 0.14 0.00 56 1019.5
20260502213047 73 350 5.0 13.0 0.00 0.14 0.00 56 1019.6
20260502212539 73 9 8.0 13.0 0.00 0.14 0.00 54 1019.6
20260502212039 73 29 7.0 13.0 0.00 0.14 0.00 55 1019.7
20260502211550 73 335 4.0 11.0 0.00 0.14 0.00 55 1019.7
20260502211040 73 61 4.0 13.0 0.00 0.14 0.00 59 1019.7
20260502210535 73 36 8.0 14.0 0.00 0.14 0.00 55 1019.8
20260502210050 73 42 7.0 14.0 0.00 0.14 0.00 55 1019.7
20260502205540 73 350 9.0 14.0 0.00 0.16 0.00 52 1019.9
20260502205038 73 13 1.0 14.0 0.00 0.16 0.00 54 1019.8
20260502204549 72 344 6.0 15.0 0.00 0.16 0.00 54 1019.9
20260502204039 72 13 8.0 15.0 0.00 0.16 0.00 55 1019.9
20260502203537 72 53 7.0 15.0 0.00 0.16 0.00 55 1020.1
20260502203108 72 45 10.0 15.0 0.00 0.16 0.00 56 1020.1
20260502202540 73 5 6.0 16.0 0.00 0.16 0.00 56 1020.1
20260502202039 72 15 6.0 16.0 0.00 0.16 0.00 57 1020.1
20260502201547 72 5 5.0 13.0 0.00 0.16 0.00 60 1020.2
20260502201040 72 9 9.0 13.0 0.00 0.16 0.00 58 1020.4
20260502200536 72 34 7.0 12.0 0.00 0.16 0.00 59 1020.4
20260502200046 72 37 5.0 12.0 0.00 0.16 0.00 59 1020.3
20260502195538 72 36 5.0 12.0 0.00 0.20 0.00 57 1020.3
20260502195039 72 10 6.0 15.0 0.00 0.20 0.00 60 1020.4
20260502194550 71 62 6.0 15.0 0.00 0.20 0.00 59 1020.5
20260502194038 71 54 8.0 13.0 0.00 0.20 0.00 60 1020.4
20260502193539 71 360 5.0 9.0 0.00 0.20 0.00 60 1020.5
20260502193048 71 302 2.0 12.0 0.00 0.20 0.00 60 1020.6
20260502192539 71 5 7.0 12.0 0.00 0.20 0.00 57 1020.8
20260502192039 71 5 8.0 13.0 0.00 0.20 0.00 59 1020.7
20260502191556 71 57 7.0 13.0 0.00 0.20 0.00 57 1020.7
20260502191039 70 5 2.0 15.0 0.00 0.20 0.00 63 1020.8
20260502190539 70 20 9.0 15.0 0.00 0.20 0.00 59 1021.0
20260502190050 71 43 10.0 15.0 0.00 0.20 0.00 59 1021.0
20260502185539 71 36 8.0 15.0 0.00 0.20 0.00 63 1021.0
20260502185036 71 360 6.0 12.0 0.00 0.20 0.00 63 1021.1
20260502184549 70 341 5.0 15.0 0.00 0.20 0.00 64 1021.1
20260502184037 70 294 6.0 15.0 0.00 0.20 0.00 64 1021.3
20260502183539 70 17 7.0 15.0 0.00 0.20 0.00 64 1021.3
20260502183053 70 334 5.0 12.0 0.00 0.20 0.00 67 1021.3
20260502182537 70 9 7.0 16.0 0.00 0.20 0.00 63 1021.4
20260502182036 70 13 7.0 16.0 0.00 0.20 0.00 65 1021.5
20260502181607 69 40 11.0 16.0 0.00 0.20 0.00 65 1021.7
20260502181041 69 343 5.0 14.0 0.00 0.20 0.00 67 1021.7
20260502180537 69 355 7.0 14.0 0.00 0.20 0.00 65 1021.8